(54) Alexandra
ephemeris date magn radius delta ra dec elong phase
Today28 Jul 202613.93.038 AU3.884 AU10h14m+05°54'29.2°9.4°
Opposition1 May 202711.42.505 AU1.533 AU14h04m-33°28'160.4°7.7°
(54) Alexandra - 2026-07-28
astro.vanbuitenen.nl


 
-1 year
-1 month
-1 day
Now
+1 day
+1 month
+1 year

The interactive orbit chart above shows the body's path through the solar system and its position at the given date. Green and blue lines are shown perpendicular to the ecliptic plane: Green if the path is above the ecliptic plane, blue if it is below. (Left-click and drag to rotate the view; Right-click and drag to move the view; Use scroll wheel to zoom in our out.)

The orbital elements of Alexandra are:

            e (Eccentricity)                : 0.1991502
            a (Semimajor axis)              : 2.7102403
            i (Inclination)                 : 11.83626
            Ω (Longitude of ascending node) : 313.01339
            ω (Argument of perihelion)      : 346.35813
            M (Mean anomaly)                : 230.77822
            Epoch                           : 2026 Jun 09

            L (Longitude of perihelion)     : 299.65107
            B (Latitude of perihelion)      : -2.77288
            P (Orbital period in years)     : 4.46            
        

The light curve chart below shows the estimated development of the minor planet's magnitude.


The all-sky chart below shows the path of the minor planet over the same period as the light curve. The current position is marked yellow.





The following chart shows the path of the minor planet in the next few days. The field of view is optimized for (~10x50) binoculars and finderscopes.




Ephemerides:
Date       Time       RA (2000)    DEC (2000)    delta   radius  elong  phase   PA    magn
2026-07-28 00:00 UT   10 14 43.0   +05 54 40     3.884    3.038   29.2    9.4   119   13.9 
2026-07-28 02:19 UT   10 14 50.4   +05 53 52     3.885    3.038   29.1    9.4   119   13.9 
2026-07-29 00:00 UT   10 15 59.8   +05 46 21     3.889    3.037   28.6    9.2   120   13.9 
2026-07-30 00:00 UT   10 17 16.8   +05 37 58     3.894    3.036   28.0    9.0   120   13.9 
2026-07-31 00:00 UT   10 18 33.9   +05 29 33     3.899    3.034   27.4    8.9   120   13.9 
2026-08-01 00:00 UT   10 19 51.2   +05 21 05     3.904    3.033   26.8    8.7   121   13.9 
2026-08-02 00:00 UT   10 21 08.7   +05 12 34     3.908    3.031   26.2    8.5   121   13.9 
2026-08-03 00:00 UT   10 22 26.3   +05 03 60     3.913    3.030   25.6    8.3   121   13.9 
2026-08-04 00:00 UT   10 23 44.1   +04 55 24     3.917    3.028   25.0    8.2   122   13.9 
2026-08-05 00:00 UT   10 25 02.1   +04 46 44     3.921    3.027   24.5    8.0   122   13.9 
2026-08-06 00:00 UT   10 26 20.2   +04 38 03     3.925    3.025   23.9    7.8   122   13.9 
2026-08-07 00:00 UT   10 27 38.4   +04 29 18     3.928    3.024   23.3    7.6   123   13.8 
2026-08-08 00:00 UT   10 28 56.8   +04 20 31     3.932    3.022   22.7    7.4   123   13.8 
2026-08-09 00:00 UT   10 30 15.4   +04 11 41     3.936    3.020   22.1    7.3   124   13.8 
2026-08-10 00:00 UT   10 31 34.1   +04 02 48     3.939    3.019   21.5    7.1   124   13.8 
2026-08-11 00:00 UT   10 32 52.9   +03 53 53     3.942    3.017   21.0    6.9   125   13.8 
2026-08-12 00:00 UT   10 34 11.9   +03 44 55     3.945    3.016   20.4    6.7   125   13.8 
2026-08-13 00:00 UT   10 35 31.0   +03 35 55     3.948    3.014   19.8    6.5   126   13.8 
2026-08-14 00:00 UT   10 36 50.2   +03 26 52     3.951    3.013   19.2    6.4   126   13.8 
2026-08-15 00:00 UT   10 38 09.6   +03 17 47     3.953    3.011   18.7    6.2   127   13.8 
2026-08-16 00:00 UT   10 39 29.1   +03 08 39     3.956    3.010   18.1    6.0   127   13.8 
2026-08-17 00:00 UT   10 40 48.7   +02 59 29     3.958    3.008   17.5    5.8   128   13.8 
2026-08-18 00:00 UT   10 42 08.4   +02 50 16     3.960    3.007   17.0    5.6   129   13.8 
2026-08-19 00:00 UT   10 43 28.2   +02 41 01     3.962    3.005   16.4    5.5   129   13.8 
2026-08-20 00:00 UT   10 44 48.1   +02 31 44     3.964    3.003   15.8    5.3   130   13.7 


    Terminology:
            
    delta:  distance between minor planet and earth in AU
    radius: distance between minor planet and sun in AU
    magn:   magnitude (brightness) estimate    
    ra:     right ascension in hours (24h = 360deg)
    dec:    declination in degrees
    elong:  elongation in degrees (angle sun-earth-minor planet)    
    phase:  phase angle in degrees (angle sun-minor planet-earth)        
    AU:     Astronomical Unit (mean distance between earth and sun: 149597870.7 km
    

Orbital elements provided by the MPC (Minor Planet Center).
Calculations by a modified version of AAPlus, a C# implementation of the AA+ project by PJ Naughter from the algorithms presented in the book "Astronomical Algorithms" by Jean Meeus.
NGC2000 dso catalog and star labels from VizieR as provided by the Strasbourg astronomical Data Center.
Tycho2 catalog from the ESO archive.